Content
SEND FEEDBACK

Daily
Averages
Monthly
Summary
United States of America

BOX ELDER, SOUTH DAKOTA


Home > North America > United States > South Dakota
Elevation: 3170 feet     Latitude: 44 09N     Longitude: 103 06W

WEATHER
 
SELECT A DAY
Number of Records: 208,954;   Date Range: 1/1/95 - 11/24/14
 
SHARE

PRINT THIS DATA

[ ← Previous Day ]
WEATHER ALMANAC - JUNE 14, 2013
[ Next Day → ]
[ °C ]   °F
Weather ElementAverageHighLow
Temperature68.6 °F77.5 °F (3:58 pm)60.1 °F (3:58 am)
Dewpoint52.2 °F58.3 °F (1:58 am)46.9 °F (2:58 pm)
Humidity58.8 %90 % (3:58 am)34 % (2:58 pm)
Barometer29.85 in30.00 in (11:58 pm)29.70 in (3:58 am)
Wind Speed14.3 mph25.3 mph (6:58 am)
Wind Gust35.7 mph (6:58 am)
Weather ElementAverage
Visibility10 mi
Wind DirectionSSW (196.1 °)

Weather ElementTotal
Precipitation---
Cooling Degree Days3.8 (Base 65)
Growing Degree Days18.8 (Base 50)
Averaged from 23 records on June 14, 2013
WEATHER CONDITIONS BREAKOUT
WIND DIRECTION BREAKOUT
WEATHER BY HOUR - JUNE 14, 2013
[ °C ]   °F
Local TimeTemperatureDewpointHumidityBarometerVisibilityWind DirectionWind SpeedGust SpeedPrecipitationEventsConditions
1:58 AM62.8 °F58.3 °F85 %29.75 in10.0 miSE (140°)9.2 mphMostly Cloudy
2:58 AM61.3 °F57.2 °F86 %29.73 in10.0 miSE (130°)9.2 mphClear
3:58 AM60.1 °F57.2 °F90 %29.70 in10.0 miSSE (150°)13.8 mphClear
4:58 AM60.3 °F56.7 °F88 %29.75 in10.0 miSE (130°)5.8 mphMostly Cloudy
5:58 AM61.3 °F56.1 °F83 %29.79 in10.0 miNorth (350°)23.0 mph32.2 mphClear
6:58 AM61.5 °F54.0 °F76 %29.82 in10.0 miNNW (340°)25.3 mph35.7 mphPartly Cloudy
7:58 AM64.2 °F54.1 °F70 %29.81 in10.0 miNNW (330°)20.7 mph29.9 mphClear
8:58 AM66.0 °F55.0 °F68 %29.84 in10.0 miNW (310°)19.6 mph25.3 mphClear
9:58 AM68.4 °F56.7 °F66 %29.85 in10.0 miNW (320°)18.4 mph24.2 mphClear
10:58 AM70.3 °F56.1 °F61 %29.85 in10.0 miNNW (340°)18.4 mph25.3 mphClear
11:58 AM73.8 °F51.8 °F46 %29.86 in10.0 miNorth (360°)20.7 mphClear
12:58 PM75.4 °F49.1 °F39 %29.86 in10.0 miNorth (10°)19.6 mph26.5 mphClear
1:58 PM76.6 °F47.5 °F36 %29.86 in10.0 miNorth (360°)18.4 mphClear
2:58 PM77.0 °F46.9 °F34 %29.87 in10.0 miNNE (20°)13.8 mphClear
3:58 PM77.5 °F48.2 °F35 %29.88 in10.0 miNNE (20°)8.1 mphClear
4:58 PM77.5 °F50.7 °F39 %29.86 in10.0 miNNE (30°)6.9 mphClear
5:58 PM76.8 °F49.1 °F38 %29.85 in10.0 miNE (40°)8.1 mphClear
6:58 PM76.1 °F49.3 °F39 %29.86 in10.0 miNNE (20°)8.1 mphClear
7:58 PM70.9 °F50.9 °F49 %29.90 in10.0 miNorth (10°)12.7 mphClear
8:58 PM68.5 °F52.0 °F55 %29.95 in10.0 miNNE (20°)11.5 mphOvercast
9:58 PM66.6 °F49.6 °F54 %29.97 in10.0 miNorth (360°)15.0 mphScattered Clouds
10:58 PM63.1 °F47.8 °F57 %29.99 in10.0 miNorth (360°)12.7 mphPartly Cloudy
11:58 PM62.2 °F47.3 °F58 %30.00 in10.0 miNorth (360°)10.4 mphMostly Cloudy
Hourly data recorded from KRCA, located miles away from Box Elder, South Dakota







STORIES FROM OUR PARTNERS